Clearfield, PA

3:01 PM EDT on June 22, 2017 (GMT -0400)
Clearfield-Lawrence

Weather History for KFIG - June, 2013

Change the Weather History Date:

Thursday, June 27, 2013

  Actual Average (KDUJ) Record (KDUJ)
Temperature  
Mean Temperature 65 °F -  
Max Temperature 70 °F 78 °F 91 °F (1966)
Min Temperature 60 °F 57 °F 46 °F (1974)
Growing Degree Days 15 (Base 50)    
Moisture  
Dew Point 64 °F    
Average Humidity 95    
Maximum Humidity 100    
Minimum Humidity 88    
Precipitation  
Precipitation 1.34 in - - ()
Sea Level Pressure  
Sea Level Pressure 29.75 in    
Wind  
Wind Speed 3 mph (NNE)    
Max Wind Speed 13 mph    
Max Gust Speed -    
Visibility 2 miles    
Events Fog , Rain    
Averages and records for this station are not official NWS values.
T = Trace of Precipitation, MM = Missing Value Source: NWS Daily Summary

Daily Weather History Graph

Daily Weather History Graph

Search for Another Location

Airport or City:

Trip Planner

Search our weather history database for the weather conditions in past years. The results will help you decide how hot, cold, wet, or windy it might be!

Date:

Astronomy

Jun. 27, 2013 Rise Set
Actual Time 5:43 AM EDT 8:50 PM EDT
Civil Twilight 5:09 AM EDT 9:23 PM EDT
Nautical Twilight 4:26 AM EDT 10:06 PM EDT
Astronomical Twilight 3:35 AM EDT 10:57 PM EDT
Moon 11:43 PM EDT (6/27) 10:44 AM EDT (6/27)
Length of Visible Light 16h 13m
Length of Day
15h 06m
Waning Gibbous, 76% of the Moon is Illuminated
Jun 27
Waning Gibbous
Jun 30
Last Quarter
Jul 8
New
Jul 15
First Quarter
Jul 22
Full

Hourly Weather History & Observations

Time (EDT) Temp. Dew Point Humidity Pressure Visibility Wind Dir Wind Speed Gust Speed Precip Events Conditions
12:38 AM 62.6 °F 62.6 °F 100% 29.87 in 2.0 mi Calm Calm - N/A   Partly Cloudy
12:41 AM 62.6 °F 62.6 °F 100% 29.87 in 0.8 mi Calm Calm - N/A   Scattered Clouds
12:49 AM 62.6 °F 60.8 °F 94% 29.88 in 0.2 mi Calm Calm - N/A Fog Fog
12:50 AM 63.0 °F 61.0 °F 93% 29.85 in 0.2 mi Calm Calm - N/A Fog Fog
12:54 AM 62.6 °F 60.8 °F 94% 29.88 in 1.0 mi Calm Calm - N/A   Mist
12:56 AM 62.6 °F 60.8 °F 94% 29.88 in 2.0 mi Calm Calm - N/A   Partly Cloudy
1:04 AM 62.6 °F 62.6 °F 100% 29.88 in 4.0 mi Calm Calm - N/A   Partly Cloudy
1:14 AM 62.6 °F 60.8 °F 94% 29.88 in 1.8 mi Calm Calm - N/A   Scattered Clouds
1:23 AM 62.6 °F 60.8 °F 94% 29.88 in 1.2 mi Calm Calm - N/A   Mostly Cloudy
1:26 AM 62.6 °F 60.8 °F 94% 29.88 in 3.0 mi Calm Calm - N/A   Mostly Cloudy
1:54 AM 63.0 °F 61.0 °F 93% 29.85 in 6.0 mi Calm Calm - N/A   Scattered Clouds
2:14 AM 62.6 °F 60.8 °F 94% 29.87 in 4.0 mi Calm Calm - N/A   Mostly Cloudy
2:21 AM 62.6 °F 60.8 °F 94% 29.87 in 1.8 mi Calm Calm - N/A   Mostly Cloudy
2:33 AM 62.6 °F 60.8 °F 94% 29.87 in 0.2 mi Calm Calm - N/A Fog Fog
2:43 AM 62.6 °F 60.8 °F 94% 29.87 in 0.8 mi Calm Calm - N/A   Mist
2:54 AM 61.0 °F 60.1 °F 97% 29.85 in 0.8 mi North 3.5 mph - N/A   Mist
3:04 AM 60.8 °F 59.0 °F 94% 29.87 in 0.2 mi North 3.5 mph - N/A Fog Fog
3:14 AM 60.8 °F 59.0 °F 94% 29.86 in 0.2 mi NNW 3.5 mph - N/A Fog Fog
3:27 AM 60.8 °F 60.8 °F 100% 29.86 in 0.5 mi NNE 3.5 mph - N/A Fog Fog
3:44 AM 60.8 °F 60.8 °F 100% 29.85 in 0.5 mi North 4.6 mph - N/A Fog Fog
3:54 AM 60.1 °F 60.1 °F 100% 29.83 in 0.2 mi North 5.8 mph - N/A Fog Fog
4:54 AM 61.0 °F 61.0 °F 100% 29.81 in 0.2 mi NE 3.5 mph - N/A Fog Fog
5:54 AM 62.1 °F 61.0 °F 96% 29.82 in 0.2 mi Calm Calm - N/A Fog Fog
6:54 AM 62.1 °F 62.1 °F 100% 29.81 in 0.2 mi NNE 6.9 mph - N/A Fog Fog
7:54 AM 63.0 °F 63.0 °F 100% 29.80 in 0.2 mi NE 3.5 mph - N/A Fog Fog
8:54 AM 64.0 °F 63.0 °F 96% 29.78 in 0.2 mi NE 6.9 mph - N/A Fog Fog
9:02 AM 64.4 °F 62.6 °F 94% 29.81 in 0.8 mi NNE 5.8 mph - N/A   Mist
9:09 AM 64.4 °F 64.4 °F 100% 29.81 in 1.2 mi NE 4.6 mph - N/A   Overcast
9:21 AM 64.4 °F 64.4 °F 100% 29.81 in 3.0 mi North 4.6 mph - N/A   Overcast
9:52 AM 66.2 °F 64.4 °F 94% 29.80 in 5.0 mi NNE 6.9 mph - 0.00 in Rain Light Rain
9:54 AM 66.0 °F 64.9 °F 96% 29.78 in 5.0 mi NNE 5.8 mph - 0.00 in Rain Light Rain
10:54 AM 66.9 °F 66.0 °F 97% 29.77 in 3.0 mi NE 6.9 mph - 0.02 in Rain Light Rain
11:38 AM 68.0 °F 66.2 °F 94% 29.77 in 2.5 mi NE 9.2 mph - 0.04 in Rain Rain
11:54 AM 68.0 °F 66.9 °F 96% 29.75 in 2.5 mi ENE 9.2 mph - 0.06 in Rain Light Rain
12:01 PM 68.0 °F 66.2 °F 94% 29.76 in 3.0 mi NE 9.2 mph - 0.00 in Rain Light Rain
12:39 PM 69.8 °F 66.2 °F 88% 29.75 in 3.0 mi ENE 9.2 mph - 0.01 in Rain Light Rain
12:54 PM 69.1 °F 68.0 °F 96% 29.72 in 3.0 mi ENE 10.4 mph - 0.02 in Rain Light Rain
1:47 PM 69.8 °F 68.0 °F 94% 29.72 in 3.0 mi ENE 10.4 mph - 0.01 in Rain Light Rain
1:54 PM 70.0 °F 68.0 °F 93% 29.70 in 3.0 mi ENE 9.2 mph - 0.01 in Rain Light Rain
2:23 PM 69.8 °F 68.0 °F 94% 29.72 in 3.0 mi East 10.4 mph - 0.04 in Rain Heavy Rain
2:30 PM 69.8 °F 68.0 °F 94% 29.71 in 2.0 mi East 12.7 mph - 0.07 in Rain Heavy Rain
2:54 PM 69.1 °F 68.0 °F 96% 29.69 in 2.0 mi East 8.1 mph - 0.17 in Rain Heavy Rain
3:14 PM 69.8 °F 68.0 °F 94% 29.71 in 1.5 mi ESE 4.6 mph - 0.10 in Rain Heavy Rain
3:30 PM 68.0 °F 66.2 °F 94% 29.72 in 1.0 mi Variable 3.5 mph - 0.20 in Rain Heavy Rain
3:40 PM 68.0 °F 66.2 °F 94% 29.72 in 0.8 mi WSW 9.2 mph - 0.38 in Rain Heavy Rain
3:54 PM 66.9 °F 64.9 °F 93% 29.70 in 0.5 mi WSW 6.9 mph - 0.70 in Fog , Rain Heavy Rain
4:07 PM 66.2 °F 66.2 °F 100% 29.71 in 1.0 mi SSW 4.6 mph - 0.13 in Rain Heavy Rain
4:11 PM 66.2 °F 66.2 °F 100% 29.71 in 2.0 mi SW 5.8 mph - 0.13 in Rain Rain
4:19 PM 66.2 °F 64.4 °F 94% 29.70 in 3.0 mi SW 4.6 mph - 0.15 in Rain Rain
4:54 PM 66.9 °F 66.0 °F 97% 29.68 in 1.8 mi Calm Calm - 0.23 in Rain Heavy Rain
5:02 PM 66.2 °F 66.2 °F 100% 29.69 in 3.0 mi Calm Calm - 0.01 in Rain Rain
5:05 PM 68.0 °F 66.2 °F 94% 29.69 in 2.5 mi NNE 3.5 mph - 0.02 in Rain Rain
5:16 PM 66.2 °F 66.2 °F 100% 29.69 in 3.0 mi Calm Calm - 0.02 in Rain Light Rain
5:25 PM 66.2 °F 66.2 °F 100% 29.68 in 8.0 mi Calm Calm - 0.02 in Rain Light Rain
5:54 PM 69.1 °F 66.0 °F 90% 29.65 in 10.0 mi Calm Calm - 0.02 in   Mostly Cloudy
6:07 PM 69.8 °F 66.2 °F 88% 29.67 in 10.0 mi Calm Calm - N/A   Overcast
6:54 PM 68.0 °F 66.0 °F 93% 29.65 in 10.0 mi Calm Calm - N/A   Overcast
7:54 PM 66.9 °F 66.0 °F 97% 29.65 in 4.0 mi ENE 5.8 mph - 0.02 in Rain Light Rain
8:18 PM 66.2 °F 64.4 °F 94% 29.67 in 2.0 mi East 3.5 mph - 0.03 in Rain Rain
8:39 PM 66.2 °F 64.4 °F 94% 29.66 in 1.8 mi East 3.5 mph - 0.06 in Rain Rain
8:47 PM 66.2 °F 64.4 °F 94% 29.66 in 2.5 mi East 3.5 mph - 0.07 in Rain Light Rain
8:54 PM 66.9 °F 64.9 °F 93% 29.64 in 5.0 mi Calm Calm - 0.07 in Rain Light Rain
9:39 PM 66.2 °F 64.4 °F 94% 29.66 in 2.5 mi Calm Calm - 0.00 in Rain Light Rain
9:54 PM 66.0 °F 64.9 °F 96% 29.64 in 2.0 mi Calm Calm - 0.01 in Rain Light Rain
10:07 PM 66.2 °F 64.4 °F 94% 29.66 in 1.0 mi NNW 3.5 mph - 0.00 in Rain Light Rain
10:12 PM 66.2 °F 64.4 °F 94% 29.66 in 0.2 mi Calm Calm - 0.00 in Fog Fog
10:21 PM 66.2 °F 64.4 °F 94% 29.66 in 0.2 mi Calm Calm - 0.00 in Fog , Rain Light Rain
10:28 PM 66.2 °F 64.4 °F 94% 29.66 in 0.8 mi Calm Calm - 0.01 in Rain Light Rain
10:37 PM 66.2 °F 64.4 °F 94% 29.66 in 1.5 mi North 3.5 mph - 0.01 in Rain Light Rain
10:54 PM 66.0 °F 64.9 °F 96% 29.64 in 1.8 mi NNW 3.5 mph - 0.01 in Rain Light Rain
10:59 PM 66.2 °F 64.4 °F 94% 29.66 in 3.0 mi North 4.6 mph - 0.00 in   Overcast
11:09 PM 66.2 °F 64.4 °F 94% 29.66 in 1.8 mi North 3.5 mph - 0.00 in   Overcast
11:19 PM 66.2 °F 64.4 °F 94% 29.66 in 3.0 mi North 3.5 mph - 0.00 in   Overcast
11:54 PM 66.0 °F 64.0 °F 93% 29.63 in 8.0 mi Calm Calm - 0.00 in   Overcast